Regional Weather Roundup
Issued by NWS

Home | Current Version | Previous Version | Text Only | Print | Product List | Glossary Off
Versions: 1 2 3 4 5 6 7 8 9 10 11 12 13 14 15 16 17 18 19 20 21 22 23 24 25 26 27 28 29 30 31 32 33 34 35 36 37 38 39 40 41 42 43 44 45 46 47 48 49 50

000
ASUS45 KCYS 181510
RWRWY

WYOMING REGIONAL WEATHER ROUNDUP
NATIONAL WEATHER SERVICE CHEYENNE WY
800 AM MST MON DEC 18 2017

NOTE:  "FAIR" INDICATES FEW OR NO CLOUDS BELOW 12,000 FEET
WITH NO SIGNIFICANT WEATHER AND/OR OBSTRUCTIONS TO VISIBILITY.

WYZ001-181600-
YELLOWSTONE NATIONAL PARK

CITY           SKY/WX    TMP DP  RH WIND       PRES   REMARKS
LK YELLOWSTONE   N/A     16  13  88 VRB5      30.07F WCI   9
W YELLOWSTONE  NOT AVBL

$$
WYZ002>013-054>058-071-098>099-181600-
NORTHERN WYOMING

CITY           SKY/WX    TMP DP  RH WIND       PRES   REMARKS
JACKSON        CLOUDY    24  19  81 S10       30.11R WCI  14
CODY           MOCLDY    39  21  48 W7G21     29.88R WCI  34
GREYBULL       FAIR      15  12  88 VRB3      29.92F
WORLAND        FAIR      11   9  92 SW6       29.93R WCI   1
SHERIDAN       FAIR      26  21  81 S5        29.72F WCI  20
BUFFALO        FAIR      38  20  48 CALM      29.75R
GILLETTE       FAIR      35  23  61 SW23      29.74R WCI  23
HULETT         CLOUDY    34  23  64 SW14      29.75R WCI  24
NEWCASTLE      FAIR      23  18  80 NE6       29.83F WCI  16

$$
WYZ014>020-022>026-101>103-181600-
CENTRAL WYOMING

CITY           SKY/WX    TMP DP  RH WIND       PRES   REMARKS
BIG PINEY      FAIR      10   7  87 NW6       30.12R WCI   0
PINEDALE       CLOUDY    21  18  86 CALM      30.11S
DUBOIS         PTSUNNY   27  18  69 NW23G32   29.95R WCI  12
LANDER         FAIR      27  17  66 VRB5      29.94R WCI  22
RIVERTON       FAIR      27  18  69 SW9       29.92S WCI  18
CASPER         FAIR      30  18  60 SW25G41   29.93R WCI  16
DOUGLAS        FAIR      36  21  54 S6        29.86S WCI  31

$$
WYZ021-027>030-104>119-181600-
SOUTHERN WYOMING

CITY           SKY/WX    TMP DP  RH WIND       PRES   REMARKS
EVANSTON       MOCLDY    20  13  74 SW16      30.18R WCI   6
FORT BRIDGER   FAIR      28  17  65 W15       30.17F WCI  16
ROCK SPRINGS   FAIR      25  12  58 SW21      30.14R WCI  11
DIXON          CLOUDY    24  20  84 CALM      30.20R
RAWLINS        FAIR      28  18  66 W28G36    30.03S WCI  13
LARAMIE        FAIR      29  19  66 SW22G37   29.98F WCI  15
CHEYENNE       FAIR      38  20  48 W25G32    29.92F WCI  27
TORRINGTON     FAIR      42  22  44 W15G22    29.87F
PINE BLUFFS    FAIR      21  18  86 S7        29.95S WCI  13

$$



USA.gov is the U.S. government's official web portal to all federal, state and local government web resources and services.